OneWeb SL0559

operational
NORAD ID: 56060 Int'l Des: 2023-043 Owner: ONEWEBN Country: UK Constellation: oneweb
LEOCIRCULARPOLARONEWEB_TYPE

About OneWeb SL0559

Description loading...

Live Position

Loading 3D Globe...

Upcoming Passes

Altitude History

Altitude vs Time

uPlot chart will show altitude changes over time

Two-Line Element Set

1 56060U 23043Q 25304.67783862 .00000146 00000-0 32094-3 0 9992
2 56060 87.9170 289.5664 0002072 95.5014 264.6356 13.21827480128061
Epoch: Oct 31, 2025 • Age: 26 hours

Current Status

Altitude 1186.1 km
Velocity 7.27 km/s
Sub-Earth Point 57.47°N, 150.01°E
Launch Date Mar 26, 2023
Age 2.6 years
Type internet

Technical Details

Classification Payload
Mass 148.00 kg
Dry Mass 140.00 kg
Total Mass 148.00 kg
Length 1.30 m
Diameter 1.00 m
Span 5.00 m
Shape Trapezoid+2 pan
Manufacturer ONEWUS
Bus Type ARROW
Phase Status In Orbit
Owner/State ONEWEBN/UK

Large Constellations

Loading constellations...